Location: Unspecified
(0.0000°N, 0.0000°E)
Time: 08:29:40
(UTC+00:00)

MANDRAKE 2 BAKER - Pass Details

Date: 17 February 2026
Orbit: 402 x 407 km, 97.7° (Epoch: 7 March)

Event Time Altitude Azimuth Distance (km) Brightness Sun altitude
Rises 04:49:10 0° 137° (SE) 2,331 ? -20.7°
Reaches altitude 10° 04:52:01 10° 107° (ESE) 1,464 ? -20.0°
Maximum altitude 04:53:30 13° 79° (ENE) 1,303 ? -19.7°
Drops below altitude 10° 04:54:58 10° 50° (NE) 1,457 ? -19.3°
Sets 04:57:47 0° 20° (NNE) 2,309 ? -18.6°
